{"data":{"norad_id":52125,"epoch":"2026-09-20T00:40:33.627072Z","epoch_age_seconds":96911,"freshness":"FRESH","line1":"1 52125U 22029AP  26263.02816698 -.00001858  00000+0 -45173-4 0  9996","line2":"2 52125  53.1597 271.7311 0001388  50.1258 309.9866 15.33552613250338","mean_motion":15.33552613,"eccentricity":0.0001388,"inclination_deg":53.1597,"raan_deg":271.7311,"arg_perigee_deg":50.1258,"mean_anomaly_deg":309.9866,"bstar":-4.5173e-5,"rev_number":25033,"period_min":93.899615037205,"perigee_km":464.2731542559,"apogee_km":466.1728709954,"semimajor_km":6843.3600126257,"source":"CELESTRAK","updated_at":"2026-09-20T09:00:39.990519Z"}}